Ft Riley, KS

8:35 AM CDT on October 18, 2019 (GMT -0500)
Marshall Army Air Field

Weather History for KFRI - September, 2019

Change the Weather History Date:

Sunday, September 22, 2019

  Actual Average (KMHK) Record (KMHK)
Temperature  
Mean Temperature 68 °F -  
Max Temperature 76 °F 76 °F 97 °F (2017)
Min Temperature 59 °F 49 °F 35 °F (1999)
Cooling Degree Days 3    
Growing Degree Days 18 (Base 50)    
Moisture  
Dew Point 64 °F    
Average Humidity 84    
Maximum Humidity 94    
Minimum Humidity 56    
Precipitation  
Precipitation 0.25 in - - ()
Sea Level Pressure  
Sea Level Pressure 29.87 in    
Wind  
Wind Speed 8 mph ()    
Max Wind Speed 14 mph    
Max Gust Speed 25 mph    
Visibility 9.3 miles    
Events Rain , Thunderstorm    
Averages and records for this station are not official NWS values.
T = Trace of Precipitation, MM = Missing Value Source: Averaged Metar Reports

Daily Weather History Graph

Daily Weather History Graph

Search for Another Location

Airport or City:

Astronomy

Sep. 22, 2019 Rise Set
Actual Time 7:14 AM CDT 7:24 PM CDT
Civil Twilight 6:47 AM CDT 7:51 PM CDT
Nautical Twilight 6:16 AM CDT 8:22 PM CDT
Astronomical Twilight 5:44 AM CDT 8:53 PM CDT
Moon 12:07 AM CDT (9/22) 3:18 PM CDT (9/22)
Length of Visible Light 13h 03m
Length of Day
12h 09m
Last Quarter, 44% of the Moon is Illuminated
Sep 22
Last Quarter
Sep 28
New
Oct 5
First Quarter
Oct 13
Full
Oct 21
Last Quarter

Hourly Weather History & Observations

Time (CDT) Temp. Dew Point Humidity Pressure Visibility Wind Dir Wind Speed Gust Speed Precip Events Conditions
12:26 AM 75.2 °F 66.2 °F 73% 29.87 in 10.0 mi NNE 11.5 mph - N/A   Overcast
12:56 AM 71.1 °F 64.6 °F 80% 29.86 in 10.0 mi NNE 12.7 mph - N/A   Overcast
1:07 AM 69.8 °F 64.4 °F 83% 29.87 in 10.0 mi West 13.8 mph 25.3 mph N/A   Overcast
1:16 AM 69.8 °F 64.4 °F 83% 29.88 in 10.0 mi NE 11.5 mph 25.3 mph N/A Rain Light Rain Showers
1:28 AM 69.8 °F 64.4 °F 83% 29.87 in 4.0 mi North 12.7 mph - N/A Rain , Thunderstorm Rain Showers
1:40 AM 68.0 °F 64.4 °F 88% 29.89 in 3.0 mi NNE 8.1 mph - N/A Rain , Thunderstorm Thunderstorms and Rain
1:56 AM 67.3 °F 65.5 °F 94% 29.87 in 10.0 mi ENE 10.4 mph - 0.18 in Rain , Thunderstorm Light Rain Showers
2:11 AM 68.0 °F 66.2 °F 94% 29.87 in 10.0 mi ENE 8.1 mph - N/A Rain Light Rain Showers
2:56 AM 67.5 °F 65.7 °F 94% 29.86 in 10.0 mi East 5.8 mph - 0.01 in   Overcast
3:41 AM 68.0 °F 66.2 °F 94% 29.84 in 10.0 mi ESE 10.4 mph - N/A   Scattered Clouds
3:56 AM 68.2 °F 66.0 °F 93% 29.84 in 10.0 mi SE 6.9 mph - N/A   Overcast
4:02 AM 68.0 °F 66.2 °F 94% 29.84 in 10.0 mi SSE 5.8 mph - N/A Rain Light Rain Showers
4:49 AM 69.8 °F 68.0 °F 94% 29.82 in 10.0 mi South 6.9 mph - N/A Rain Light Rain
4:56 AM 71.1 °F 68.2 °F 91% 29.82 in 7.0 mi South 8.1 mph - 0.05 in Rain Light Rain
5:06 AM 71.6 °F 68.0 °F 88% 29.82 in 10.0 mi South 6.9 mph - N/A   Mostly Cloudy
5:56 AM 72.3 °F 68.9 °F 89% 29.82 in 10.0 mi South 8.1 mph - 0.00 in   Overcast
6:56 AM 71.4 °F 68.5 °F 91% 29.81 in 10.0 mi South 6.9 mph - N/A   Mostly Cloudy
7:50 AM 71.6 °F 68.0 °F 88% 29.79 in 10.0 mi SSW 12.7 mph - N/A Rain Light Rain
7:53 AM 71.6 °F 68.0 °F 88% 29.79 in 10.0 mi SSW 11.5 mph - N/A   Partly Cloudy
7:56 AM 71.4 °F 68.5 °F 91% 29.79 in 10.0 mi SSW 9.2 mph - 0.00 in   Partly Cloudy
8:56 AM 71.4 °F 68.4 °F 90% 29.83 in 10.0 mi WNW 10.4 mph - 0.00 in Rain Light Rain
9:01 AM 71.6 °F 68.0 °F 88% 29.83 in 10.0 mi NW 8.1 mph - N/A   Overcast
9:03 AM 71.6 °F 68.0 °F 88% 29.83 in 10.0 mi NW 8.1 mph - N/A   Light Drizzle
9:18 AM 69.8 °F 66.2 °F 88% 29.84 in 10.0 mi NNW 9.2 mph - N/A Rain Light Rain
9:33 AM 69.8 °F 66.2 °F 88% 29.84 in 10.0 mi North 6.9 mph - N/A   Light Drizzle
9:34 AM 69.8 °F 66.2 °F 88% 29.84 in 10.0 mi North 8.1 mph - N/A   Mostly Cloudy
9:56 AM 68.9 °F 65.1 °F 88% 29.86 in 10.0 mi NNW 8.1 mph - 0.01 in   Mostly Cloudy
10:41 AM 66.2 °F 62.6 °F 88% 29.89 in 10.0 mi North 12.7 mph 19.6 mph N/A   Overcast
10:56 AM 64.4 °F 60.4 °F 87% 29.89 in 10.0 mi North 11.5 mph 18.4 mph N/A   Overcast
11:11 AM 64.4 °F 59.0 °F 83% 29.90 in 10.0 mi North 12.7 mph 19.6 mph N/A   Overcast
11:56 AM 68.2 °F 60.3 °F 76% 29.91 in 10.0 mi North 8.1 mph 16.1 mph N/A   Overcast
12:56 PM 71.1 °F 61.5 °F 72% 29.89 in 10.0 mi NNW 8.1 mph - N/A   Mostly Cloudy
3:26 PM 73.4 °F 60.8 °F 65% 29.91 in 10.0 mi North 10.4 mph - N/A   Overcast
3:56 PM 74.3 °F 59.5 °F 60% 29.91 in 10.0 mi NW 8.1 mph - N/A   Scattered Clouds
5:56 PM 75.7 °F 58.8 °F 56% 29.92 in 9.0 mi North 8.1 mph - N/A   Clear
6:56 PM 73.8 °F 59.0 °F 60% 29.95 in 7.0 mi NNW 3.5 mph - N/A   Clear
7:56 PM 68.9 °F 59.0 °F 71% 29.96 in 10.0 mi Calm Calm - N/A   Clear
8:56 PM 63.7 °F 59.4 °F 86% 29.98 in 10.0 mi Calm Calm - N/A   Clear
9:26 PM 62.6 °F 59.0 °F 88% 30.00 in 1.6 mi Calm Calm - N/A   Clear
9:56 PM 61.9 °F 58.6 °F 89% 30.01 in 10.0 mi Calm Calm - N/A   Clear
11:56 PM 59.0 °F 56.3 °F 91% 30.05 in 10.0 mi Calm Calm - N/A   Clear